Location: Sternwarte ZA, Rosenfeld-Brittheim
(48.2889°N, 8.6789°E)
Time: 10:28:11
(UTC+02:00)

OTV 5 (USA 277) - Visible Passes

Search period start: 21 August 2018 00:00
Search period end: 31 August 2018 00:00
Orbit: 316 x 334 km, 54.5° (Epoch: 20 August)

Date Brightness Start Highest point End Pass type
(mag) Time Alt. Az. Time Alt. Az. Time Alt. Az.
21 Aug ? 21:52:57 10° WSW 21:55:41 55° NNW 21:58:25 10° NE visible
21 Aug ? 23:28:19 10° WNW 23:29:51 20° NNW 23:29:51 20° NNW visible
22 Aug ? 22:10:34 10° W 22:13:07 31° NNW 22:15:32 11° NE visible
22 Aug ? 23:45:56 10° NW 23:46:35 14° NW 23:46:35 14° NW visible
23 Aug ? 20:53:02 10° WSW 20:55:49 71° NNW 20:58:35 10° ENE visible
23 Aug ? 22:28:19 10° WNW 22:30:39 23° N 22:32:09 15° NE visible
24 Aug ? 21:10:35 10° W 21:13:12 37° NNW 21:15:50 10° NE visible
24 Aug ? 22:45:58 10° NW 22:48:13 21° N 22:48:41 20° NNE visible
25 Aug ? 21:28:18 10° WNW 21:30:42 25° NNW 21:33:06 10° NE visible
25 Aug ? 23:03:27 10° NW 23:05:10 21° NNW 23:05:10 21° NNW visible
26 Aug ? 21:46:00 10° WNW 21:48:16 22° N 21:50:31 10° NE visible
26 Aug ? 23:20:46 10° NW 23:21:38 17° NW 23:21:38 17° NW visible
27 Aug ? 22:03:33 10° NW 22:05:50 22° N 22:07:03 17° NE visible
27 Aug ? 23:38:01 10° NW 23:38:04 10° NW 23:38:04 10° NW visible
28 Aug ? 20:46:00 10° WNW 20:48:19 22° N 20:50:36 10° NE visible
28 Aug ? 22:20:55 10° NW 22:23:23 28° NNE 22:23:29 28° NNE visible
29 Aug ? 21:03:37 10° NW 21:05:54 22° N 21:08:08 10° ENE visible
29 Aug ? 22:38:11 10° NW 22:39:57 30° NNW 22:39:57 30° NNW visible
30 Aug ? 21:21:03 10° NW 21:23:27 25° NNE 21:25:23 13° ENE visible
30 Aug ? 22:55:26 10° WNW 22:56:25 19° WNW 22:56:25 19° WNW visible
